Flag for U.S.A. Weather past 2 weeks in Detroit, Michigan, U.S.A.

Now
62 °F

Overcast.


Feels Like: 62 °F
Forecast: 57 / 77 °F
Wind: 6 mph from Southwest

Location: Detroit City Airport

Current Time: Jul 31, 2014 at 9:35:02 AM

Latest Report: Jul 31, 2014 at 8:53 AM


Visibility: 10 mi

Pressure: 30.03 "Hg

Humidity: 67%

Dew point: 51 °F

Location of DetroitLocation

Historic Weather in Detroit — Graph

°F

Detroit temperature yesterday

Maximum temperature yesterday: 77 °F (at 2:53 PM)
Minimum temperature yesterday: 60 °F (at 5:53 AM)
Average temperature yesterday: 68 °F

Past Weeks' High & Low Weather Summary

 TemperatureHumidityPressure
High89 °F (Jul 22, 7:53 PM)90% (Jul 20, 5:53 AM)30.24 "Hg (Jul 20, 5:53 AM)
Low56 °F (Jul 29, 6:53 AM)29% (Jul 17, 3:53 PM)29.56 "Hg (Jul 27, 4:53 PM)
Average70 °F62%30.00 "Hg
* Reported Jul 16 7:53 AM — Jul 31 7:53 AM, Detroit, Weather by CustomWeather, © 2014

Note: Actual official high and low records may vary slightly from our data, if they occured in-between our weather recording intervals... More about our weather records

Advertising

Detroit weather history for previous 24 hours

 ConditionsComfort  
Time TempWeatherWind HumidityBarometerVisibility
7:53 AM
Jul 31
60 °FSunny.No wind72%30.02 "Hg10 mi
6:53 AM57 °FClear.5 mph81%30.01 "Hg10 mi
5:53 AM59 °FClear.5 mph78%29.99 "Hg10 mi
4:53 AM61 °FClear.7 mph75%29.98 "Hg10 mi
3:53 AM62 °FClear.7 mph75%29.97 "Hg10 mi
2:53 AM63 °FClear.8 mph73%29.97 "Hg10 mi
1:53 AM64 °FClear.7 mph78%29.98 "Hg10 mi
12:53 AM64 °FClear.8 mph81%29.98 "Hg10 mi
11:53 PM
Jul 30
64 °FClear.5 mph81%29.97 "Hg10 mi
10:53 PM66 °FClear.3 mph78%29.98 "Hg10 mi
9:53 PM68 °FPartly sunny.No wind73%29.98 "Hg10 mi
8:53 PM69 °FLight rain. Mostly cloudy.No wind66%29.97 "Hg10 mi
7:53 PM70 °FPartly sunny.3 mph59%29.97 "Hg10 mi
6:53 PM73 °FLight rain. Cloudy.14 mph51%29.96 "Hg10 mi
5:53 PM76 °FPassing clouds.5 mph45%29.95 "Hg10 mi
4:53 PM76 °FScattered clouds.6 mph50%29.96 "Hg10 mi
3:53 PM73 °FPartly sunny.3 mph59%29.97 "Hg10 mi
2:53 PM77 °FScattered clouds.7 mph45%29.97 "Hg10 mi
1:53 PM74 °FBroken clouds.7 mph50%29.98 "Hg10 mi
12:53 PM74 °FPartly sunny.9 mph52%29.99 "Hg10 mi
11:53 AM71 °FPartly sunny.5 mph59%30.00 "Hg10 mi
10:53 AM70 °FMostly cloudy.3 mph61%30.00 "Hg10 mi
9:53 AM67 °FPartly sunny.3 mph73%30.00 "Hg10 mi
Weather by CustomWeather, © 2014

See weather overviewHow to use our weather pages